Childress, TX

4:22 PM CDT on July 22, 2017 (GMT -0500)
Childress Municipal

Weather History for KCDS - November, 2012

Change the Weather History Date:

Monday, November 26, 2012

  Actual Average Record
Temperature  
Mean Temperature 45 °F 47 °F  
Max Temperature 57 °F 60 °F 87 °F (1970)
Min Temperature 33 °F 34 °F 13 °F (1993)
Degree Days  
Heating Degree Days 20 18  
Month to date heating degree days 226 333  
Since 1 July heating degree days 405 485  
Cooling Degree Days 0 0  
Month to date cooling degree days 32 7  
Year to date cooling degree days 2798 2207  
Moisture  
Dew Point 26 °F    
Average Humidity 54    
Maximum Humidity 75    
Minimum Humidity 32    
Precipitation  
Precipitation 0.00 in 0.04 in 1.10 in (1935)
Month to date precipitation 0.08 1.10  
Year to date precipitation 16.82 22.86  
Snow  
Snow 0.00 in 0.00 in - ()
Month to date snowfall 0.0 0.5  
Since 1 July snowfall 0.0 0.7  
Since 1 September snowfall 0.0 0.7  
Snow Depth -    
Sea Level Pressure  
Sea Level Pressure 30.12 in    
Wind  
Wind Speed 14 mph (North)    
Max Wind Speed 29 mph    
Max Gust Speed 36 mph    
Visibility 10 miles    
Events      
T = Trace of Precipitation, MM = Missing Value Source: NWS Daily Summary

Daily Weather History Graph

Daily Weather History Graph

Search for Another Location

Airport or City:

Trip Planner

Search our weather history database for the weather conditions in past years. The results will help you decide how hot, cold, wet, or windy it might be!

Date:

Astronomy

Nov. 26, 2012 Rise Set
Actual Time 7:25 AM CST 5:31 PM CST
Civil Twilight 6:58 AM CST 5:59 PM CST
Nautical Twilight 6:27 AM CST 6:29 PM CST
Astronomical Twilight 5:56 AM CST 7:00 PM CST
Moon 4:23 PM CST (11/26) 5:39 AM CST (11/26)
Length of Visible Light 11h 00m
Length of Day
10h 06m
Waxing Gibbous, 97% of the Moon is Illuminated
Nov 26
Waxing Gibbous
Nov 28
Full
Dec 6
Last Quarter
Dec 13
New
Dec 19
First Quarter

Hourly Weather History & Observations

Time (CST) Temp. Windchill Dew Point Humidity Pressure Visibility Wind Dir Wind Speed Gust Speed Precip Events Conditions
12:53 AM 42.1 °F 38.4 °F 25.0 °F 51% 29.83 in 10.0 mi North 5.8 mph - N/A   Clear
1:53 AM 39.0 °F 34.8 °F 26.1 °F 60% 29.84 in 10.0 mi NNW 5.8 mph - N/A   Clear
2:53 AM 37.0 °F 32.4 °F 25.0 °F 62% 29.83 in 10.0 mi North 5.8 mph - N/A   Clear
3:53 AM 36.0 °F 29.6 °F 25.0 °F 64% 29.86 in 10.0 mi NNW 8.1 mph - N/A   Clear
4:53 AM 35.1 °F 29.3 °F 25.0 °F 67% 29.87 in 10.0 mi NNW 6.9 mph - N/A   Clear
5:53 AM 35.1 °F 27.4 °F 25.0 °F 67% 29.91 in 10.0 mi North 10.4 mph - N/A   Clear
6:53 AM 34.0 °F 26.6 °F 26.1 °F 73% 29.94 in 10.0 mi NW 9.2 mph - N/A   Clear
7:53 AM 36.0 °F 28.5 °F 28.0 °F 73% 30.01 in 10.0 mi NNW 10.4 mph - N/A   Clear
8:53 AM 43.0 °F 34.0 °F 28.9 °F 58% 30.04 in 10.0 mi North 21.9 mph - N/A   Clear
9:53 AM 46.0 °F 39.3 °F 28.9 °F 51% 30.07 in 10.0 mi North 16.1 mph - N/A   Clear
10:53 AM 51.1 °F - 30.0 °F 44% 30.10 in 10.0 mi NNE 18.4 mph - N/A   Clear
11:53 AM 54.0 °F - 30.9 °F 41% 30.11 in 10.0 mi North 18.4 mph 27.6 mph N/A   Clear
12:53 PM 55.9 °F - 30.0 °F 37% 30.11 in 10.0 mi NNE 21.9 mph 34.5 mph N/A   Clear
1:53 PM 57.0 °F - 28.9 °F 34% 30.14 in 10.0 mi NNE 24.2 mph 32.2 mph N/A   Clear
2:53 PM 55.9 °F - 27.0 °F 33% 30.17 in 10.0 mi NNE 21.9 mph 35.7 mph N/A   Clear
3:53 PM 54.0 °F - 28.0 °F 37% 30.20 in 10.0 mi North 26.5 mph 33.4 mph N/A   Clear
4:53 PM 52.0 °F - 27.0 °F 38% 30.24 in 10.0 mi North 21.9 mph 28.8 mph N/A   Clear
5:53 PM 48.9 °F - 27.0 °F 43% 30.29 in 10.0 mi NNE 10.4 mph - N/A   Clear
6:53 PM 46.9 °F - 25.0 °F 42% 30.33 in 10.0 mi North 12.7 mph - N/A   Clear
7:53 PM 43.0 °F 36.0 °F 21.9 °F 43% 30.37 in 10.0 mi North 13.8 mph - N/A   Clear
8:53 PM 41.0 °F 33.5 °F 19.9 °F 43% 30.39 in 10.0 mi North 13.8 mph - N/A   Clear
9:53 PM 37.9 °F 31.5 °F 19.0 °F 47% 30.41 in 10.0 mi North 9.2 mph - N/A   Clear
10:53 PM 36.0 °F 28.5 °F 19.0 °F 50% 30.41 in 10.0 mi North 10.4 mph - N/A   Clear
11:53 PM 34.0 °F 29.8 °F 19.0 °F 54% 30.42 in 10.0 mi North 4.6 mph - N/A   Clear